Regional Weather Roundup
Issued by NWS

Home | Current Version | Previous Version | Graphics & Text | Print | Product List | Glossary Off
Versions: 1 2 3 4 5 6 7 8 9 10 11 12 13 14 15 16 17 18 19 20 21 22 23 24 25 26 27 28 29 30 31 32 33 34 35 36 37 38 39 40 41 42 43 44 45 46 47 48 49 50

000
ASUS43 KIND 221309
RWRIN

WEATHER ROUNDUP FOR INDIANA
NATIONAL WEATHER SERVICE INDIANAPOLIS IN
900 AM EDT TUE JUL 22 2014

NOTE: "FAIR" INDICATES FEW OR NO CLOUDS BELOW 12,000 FEET WITH NO
SIGNIFICANT WEATHER AND/OR OBSTRUCTIONS TO VISIBILITY.

* - STATION DOES NOT REPORT WEATHER SUCH AS PRECIPITATION OR FOG.

+ - STATION NOT QUALITY CONTROLLED BY THE NATIONAL WEATHER SERVICE.
    USE DATA WITH CAUTION...ESPECIALLY DEWPOINT AND RELATIVE
    HUMIDITY OBSERVATIONS.

INZ001>003-010>013-019-020-221400-
NORTHWEST INDIANA

CITY           SKY/WX    TMP DP  RH WIND       PRES   REMARKS
GARY /AIRPORT/ SUNNY     73  66  78 S6        30.07F
KNOX *+        SUNNY     70  64  82 SW5       30.11R
LA PORTE +     SUNNY     69  66  89 S5        30.11S
MICHIGAN CITY+ SUNNY     72  64  78 S8        30.09F
MONTICELLO +   SUNNY     70  66  88 SW5       30.11S
RENSSELAER +   SUNNY     70  68  94 S3        30.11S
VALPARAISO     SUNNY     71  65  81 SW7       30.11R

$$

LMZ046-743>745-221400-
SOUTHERN LAKE MICHIGAN

STATION/POSITION TIME  TEMP WIND        PRES
                       AIR  DIR/SP/G
                 (UTC) (F)  (DEG/KT/KT) (MB)
MICHIGAN CITY    1300   72  160/ 12/ 17   N/A

$$

INZ004-005-014>016-021>024-221400-
NORTH CENTRAL INDIANA

CITY           SKY/WX    TMP DP  RH WIND       PRES   REMARKS
ELKHART        SUNNY     72  63  73 SW3       30.12S
GOSHEN         SUNNY     73  66  78 S6        30.12R
LOGANSPORT +   SUNNY     70  63  78 CALM      30.12S
PERU/GRISSOM   SUNNY     73  71  93 S6        30.12R
ROCHESTER +    SUNNY     75  64  69 SW5       30.13R
SOUTH BEND     SUNNY     73  64  73 SW7       30.11S
WARSAW +       SUNNY     72  64  78 SW3       30.12R

$$

INZ006>009-017-018-025>027-221400-
NORTHEAST INDIANA

CITY           SKY/WX    TMP DP  RH WIND       PRES   REMARKS
ANGOLA *+      SUNNY     73  64  73 SW3       30.13R
AUBURN +       SUNNY     73  63  68 CALM      30.13S
FORT WAYNE     SUNNY     73  65  75 S5        30.13R
HUNTINGTON +   SUNNY     73  66  79 CALM      30.12S

$$

INZ028-029-035-036-043>045-051>053-221400-
WEST CENTRAL INDIANA

CITY           SKY/WX    TMP DP  RH WIND       PRES   REMARKS
GREENCASTLE +  SUNNY     70  66  88 CALM      30.12S
LAFAYETTE      SUNNY     70  65  84 CALM      30.11R
TERRE HAUTE    SUNNY     71  67  87 CALM      30.11S

$$

INZ030>032-037>040-046>048-054>057-064-065-221400-
CENTRAL INDIANA

CITY           SKY/WX    TMP DP  RH WIND       PRES   REMARKS
ANDERSON       SUNNY     73  66  78 CALM      30.14
CP ATTERBURY + SUNNY     70  66  88 CALM      30.13S FOG
COLUMBUS       SUNNY     68  68 100 CALM      30.13S FOG
INDIANAPOLIS   SUNNY     75  65  70 SE6       30.12R
-EAGLE CREEK   SUNNY     73  64  73 SE3       30.11S
KOKOMO *+      SUNNY     73  66  78 S3        30.13R
MARION +       SUNNY     71  64  80 CALM      30.13S
MT COMFORT *+  SUNNY     73  73 100 SE3       30.12S
SHELBYVILLE    SUNNY     73  67  81 CALM      30.12R
ZIONSVILLE +   SUNNY     73  67  81 CALM      30.13S HAZE

$$

INZ033-034-041-042-049-050-058-059-221400-
EAST CENTRAL INDIANA

CITY           SKY/WX    TMP DP  RH WIND       PRES   REMARKS
MUNCIE         SUNNY     76  65  68 S5        30.14R

$$

INZ060-061-067>069-081>083-085>088-221400-
SOUTHWEST INDIANA

CITY           SKY/WX    TMP DP  RH WIND       PRES   REMARKS
EVANSVILLE     SUNNY     74  68  81 CALM      30.11S HAZE
HUNTINGBURG *+ SUNNY     73  66  78 CALM      30.12S
WASHINGTON +   SUNNY     70  69  95 CALM      30.10F FOG

$$

INZ062-063-066-070>080-084-089>092-221400-
SOUTH CENTRAL AND SOUTHEAST INDIANA

CITY           SKY/WX    TMP DP  RH WIND       PRES   REMARKS
BLOOMINGTON    SUNNY     74  67  78 CALM      30.12S

$$



USA.gov is the U.S. government's official web portal to all federal, state and local government web resources and services.